Date,TemperatureHighF,TemperatureAvgF,TemperatureLowF,DewpointHighF,DewpointAvgF,DewpointLowF,HumidityHigh,HumidityAvg,HumidityLow,PressureMaxIn,PressureMinIn,WindSpeedMaxMPH,WindSpeedAvgMPH,GustSpeedMaxMPH,PrecipitationSumIn
2013-2-1,43.2,26.1,8.8,13.6,6.0,-1.0,72,45,22,30.19,29.93,17,4,17,0.00
2013-2-2,54.5,39.2,26.6,29.6,22.6,10.2,69,52,33,30.01,29.93,17,5,17,0.00
2013-2-3,56.7,43.6,32.7,28.9,22.2,14.6,73,46,21,30.05,29.76,12,4,12,0.00
2013-2-4,59.9,48.2,36.9,45.8,35.8,22.9,91,64,41,29.77,29.62,18,5,18,0.28
2013-2-5,66.2,48.3,32.5,46.4,33.6,24.6,88,61,24,29.85,29.70,18,4,18,0.00
2013-2-6,65.1,50.7,36.3,43.6,35.7,28.3,83,58,36,29.90,29.75,14,5,14,0.00
2013-2-7,61.0,50.7,42.3,53.5,48.3,39.5,99,92,69,29.86,29.66,14,5,14,0.21
2013-2-8,55.4,39.5,30.4,39.6,31.3,26.5,91,74,36,30.06,29.86,16,5,16,0.00
2013-2-9,48.7,38.3,31.5,41.3,31.8,26.4,96,79,44,29.99,29.64,17,7,17,0.17
2013-2-10,61.9,51.2,39.0,52.9,37.6,24.3,99,66,27,29.82,29.43,30,11,30,0.41
2013-2-11,55.4,40.1,27.9,28.2,23.3,15.2,80,55,23,29.96,29.82,12,4,14,0.00
2013-2-12,43.3,37.6,32.5,33.3,28.1,23.9,95,69,56,29.92,29.68,11,4,11,0.18
2013-2-13,49.8,38.3,31.3,37.9,31.4,27.5,99,79,44,29.78,29.71,20,5,20,0.07
2013-2-14,61.2,44.5,32.9,34.2,29.8,23.7,75,58,34,29.93,29.73,13,5,13,0.00
2013-2-15,41.5,33.5,21.7,30.0,17.4,3.5,79,54,24,30.08,29.93,17,6,17,0.00
2013-2-16,42.1,30.7,20.5,22.3,16.1,9.4,84,56,33,30.07,29.89,17,5,17,0.00
2013-2-17,63.3,45.1,31.3,33.8,21.1,9.7,51,39,22,29.89,29.63,15,5,15,0.00
2013-2-18,56.7,49.1,32.0,53.3,39.4,22.7,95,70,42,29.88,29.40,30,13,30,0.07
2013-2-19,45.5,32.8,19.6,23.1,16.0,11.5,78,52,29,30.07,29.88,21,5,21,0.00
2013-2-20,32.5,29.4,26.2,28.4,16.7,7.8,90,60,41,30.07,29.82,18,6,18,0.05
2013-2-21,33.3,29.5,25.7,33.0,27.6,18.8,99,92,72,29.84,29.47,13,0,13,0.00
2013-2-22,36.1,27.4,19.8,32.0,20.4,14.9,97,76,51,29.87,29.63,14,2,14,0.21
2013-2-23,45.7,29.9,18.1,23.7,18.8,13.2,88,66,37,29.87,29.72,13,3,13,0.01
2013-2-24,59.4,40.6,27.1,35.1,28.5,20.8,81,64,34,29.77,29.62,14,6,14,0.00
2013-2-25,42.1,37.4,33.1,40.0,31.8,26.8,98,81,64,29.67,29.21,21,8,21,0.41
2013-2-26,33.1,31.9,30.4,32.8,31.1,30.1,99,97,93,29.64,29.15,19,4,19,0.05
2013-2-27,37.4,32.1,29.8,31.5,28.2,24.4,97,85,72,29.83,29.62,27,10,27,0.06
2013-2-28,36.3,30.4,26.1,26.6,24.1,22.0,88,78,62,29.94,29.81,17,8,17,0.00